Time,TemperatureF,DewpointF,PressureIn,WindDirection,WindDirectionDegrees,WindSpeedMPH,WindSpeedGustMPH,Humidity,HourlyPrecipIn,Conditions,Clouds,dailyrainin,SolarRadiationWatts/m^2,SoftwareType,DateUTC
2013-02-06 00:01:00,36.0,31.0,-100.00,South,191,2.0,5.0,82,0.00,,,0.00,1.000000,,2013-02-06 08:01:00,
2013-02-06 00:32:00,34.0,31.0,-100.00,WNW,296,1.0,6.0,88,0.00,,,0.00,1.000000,,2013-02-06 08:32:00,
2013-02-06 00:42:00,34.0,31.0,-100.00,WNW,296,1.0,6.0,88,0.00,,,0.00,1.000000,,2013-02-06 08:42:00,
2013-02-06 00:53:00,34.0,31.0,-100.00,WNW,296,1.0,6.0,88,0.00,,,0.00,1.000000,,2013-02-06 08:53:00,
2013-02-06 01:01:00,34.0,31.0,-100.00,WNW,296,1.0,6.0,88,0.00,,,0.00,1.000000,,2013-02-06 09:01:00,
2013-02-06 01:32:00,33.0,30.0,-100.00,SSW,213,3.0,6.0,90,0.00,,,0.00,1.000000,,2013-02-06 09:32:00,
2013-02-06 01:42:00,33.0,30.0,-100.00,SSW,213,3.0,6.0,90,0.00,,,0.00,1.000000,,2013-02-06 09:42:00,
2013-02-06 01:52:00,33.0,30.0,-100.00,SSW,213,3.0,6.0,90,0.00,,,0.00,1.000000,,2013-02-06 09:52:00,
2013-02-06 02:01:00,33.0,30.0,-100.00,SSW,213,3.0,6.0,90,0.00,,,0.00,1.000000,,2013-02-06 10:01:00,
2013-02-06 02:32:00,35.0,32.0,-100.00,West,278,1.0,3.0,90,0.00,,,0.00,1.000000,,2013-02-06 10:32:00,
2013-02-06 02:42:00,35.0,32.0,-100.00,West,278,1.0,3.0,90,0.00,,,0.00,1.000000,,2013-02-06 10:42:00,
2013-02-06 02:52:00,35.0,32.0,-100.00,West,278,1.0,3.0,90,0.00,,,0.00,1.000000,,2013-02-06 10:52:00,
2013-02-06 03:01:00,35.0,32.0,-100.00,West,278,1.0,3.0,90,0.00,,,0.00,1.000000,,2013-02-06 11:01:00,
2013-02-06 03:32:00,34.0,31.0,-100.00,NNE,23,5.0,8.0,88,0.00,,,0.00,1.000000,,2013-02-06 11:32:00,
2013-02-06 03:42:00,34.0,31.0,-100.00,NNE,23,5.0,8.0,88,0.00,,,0.00,1.000000,,2013-02-06 11:42:00,
2013-02-06 03:52:00,34.0,31.0,-100.00,NNE,23,5.0,8.0,88,0.00,,,0.00,1.000000,,2013-02-06 11:52:00,
2013-02-06 04:01:00,34.0,31.0,-100.00,NNE,23,5.0,8.0,88,0.00,,,0.00,1.000000,,2013-02-06 12:01:00,
2013-02-06 04:32:00,35.0,33.0,-100.00,NE,40,2.0,5.0,91,0.00,,,0.00,1.000000,,2013-02-06 12:32:00,
2013-02-06 04:42:00,35.0,33.0,-100.00,NE,40,2.0,5.0,91,0.00,,,0.00,1.000000,,2013-02-06 12:42:00,
2013-02-06 04:52:00,35.0,33.0,-100.00,NE,40,2.0,5.0,91,0.00,,,0.00,1.000000,,2013-02-06 12:52:00,
2013-02-06 05:01:00,35.0,33.0,-100.00,NE,40,2.0,5.0,91,0.00,,,0.00,1.000000,,2013-02-06 13:01:00,
2013-02-06 05:32:00,35.0,33.0,-100.00,West,273,2.0,5.0,91,0.00,,,0.00,1.000000,,2013-02-06 13:32:00,
2013-02-06 05:42:00,35.0,33.0,-100.00,West,273,2.0,5.0,91,0.00,,,0.00,1.000000,,2013-02-06 13:42:00,
2013-02-06 05:52:00,35.0,33.0,-100.00,West,273,2.0,5.0,91,0.00,,,0.00,1.000000,,2013-02-06 13:52:00,
2013-02-06 06:01:00,35.0,33.0,-100.00,West,273,2.0,5.0,91,0.00,,,0.00,1.000000,,2013-02-06 14:01:00,
2013-02-06 06:32:00,35.0,32.0,-100.00,SW,217,2.0,8.0,89,0.00,,,0.00,1.000000,,2013-02-06 14:32:00,
2013-02-06 06:42:00,35.0,32.0,-100.00,SW,217,2.0,8.0,89,0.00,,,0.00,1.000000,,2013-02-06 14:42:00,
2013-02-06 06:52:00,35.0,32.0,-100.00,SW,217,2.0,8.0,89,0.00,,,0.00,1.000000,,2013-02-06 14:52:00,
2013-02-06 07:01:00,35.0,32.0,-100.00,SW,217,2.0,8.0,89,0.00,,,0.00,1.000000,,2013-02-06 15:01:00,
2013-02-06 07:32:00,33.0,30.0,-100.00,WNW,299,2.0,7.0,90,0.00,,,0.00,1.000000,,2013-02-06 15:32:00,
2013-02-06 07:42:00,33.0,30.0,-100.00,WNW,299,2.0,7.0,90,0.00,,,0.00,1.000000,,2013-02-06 15:42:00,
2013-02-06 07:52:00,33.0,30.0,-100.00,WNW,299,2.0,7.0,90,0.00,,,0.00,1.000000,,2013-02-06 15:52:00,
2013-02-06 08:01:00,33.0,30.0,-100.00,WNW,299,2.0,7.0,90,0.00,,,0.00,1.000000,,2013-02-06 16:01:00,
2013-02-06 08:32:00,33.0,31.0,-100.00,SSW,200,1.0,4.0,93,0.00,,,0.00,23.000000,,2013-02-06 16:32:00,
2013-02-06 08:42:00,33.0,31.0,-100.00,SSW,200,1.0,4.0,93,0.00,,,0.00,23.000000,,2013-02-06 16:42:00,
2013-02-06 08:52:00,33.0,31.0,-100.00,SSW,200,1.0,4.0,93,0.00,,,0.00,23.000000,,2013-02-06 16:52:00,
2013-02-06 09:01:00,33.0,31.0,-100.00,SSW,200,1.0,4.0,93,0.00,,,0.00,23.000000,,2013-02-06 17:01:00,
2013-02-06 09:32:00,39.0,33.0,-100.00,NE,43,3.0,5.0,78,0.00,,,0.00,164.000000,,2013-02-06 17:32:00,
2013-02-06 09:42:00,39.0,33.0,-100.00,NE,43,3.0,5.0,78,0.00,,,0.00,164.000000,,2013-02-06 17:42:00,
2013-02-06 09:52:00,39.0,33.0,-100.00,NE,43,3.0,5.0,78,0.00,,,0.00,164.000000,,2013-02-06 17:52:00,
2013-02-06 10:01:00,39.0,33.0,-100.00,NE,43,3.0,5.0,78,0.00,,,0.00,164.000000,,2013-02-06 18:01:00,
2013-02-06 10:33:00,45.0,36.0,-100.00,North,1,2.0,4.0,70,0.00,,,0.00,242.000000,,2013-02-06 18:33:00,
2013-02-06 10:42:00,45.0,36.0,-100.00,North,1,2.0,4.0,70,0.00,,,0.00,242.000000,,2013-02-06 18:42:00,
2013-02-06 10:52:00,45.0,36.0,-100.00,North,1,2.0,4.0,70,0.00,,,0.00,242.000000,,2013-02-06 18:52:00,
2013-02-06 11:01:00,45.0,36.0,-100.00,North,1,2.0,4.0,70,0.00,,,0.00,242.000000,,2013-02-06 19:01:00,
2013-02-06 11:32:00,48.0,34.0,-100.00,ENE,78,4.0,6.0,58,0.00,,,0.00,322.000000,,2013-02-06 19:32:00,
2013-02-06 11:42:00,48.0,34.0,-100.00,ENE,78,4.0,6.0,58,0.00,,,0.00,322.000000,,2013-02-06 19:42:00,
2013-02-06 11:52:00,48.0,34.0,-100.00,ENE,78,4.0,6.0,58,0.00,,,0.00,322.000000,,2013-02-06 19:52:00,
2013-02-06 12:01:00,48.0,34.0,-100.00,ENE,78,4.0,6.0,58,0.00,,,0.00,322.000000,,2013-02-06 20:01:00,
2013-02-06 12:32:00,50.0,27.0,-100.00,South,170,5.0,15.0,41,0.00,,,0.00,297.000000,,2013-02-06 20:32:00,
2013-02-06 12:42:00,50.0,27.0,-100.00,South,170,5.0,15.0,41,0.00,,,0.00,297.000000,,2013-02-06 20:42:00,
2013-02-06 12:52:00,50.0,27.0,-100.00,South,170,5.0,15.0,41,0.00,,,0.00,297.000000,,2013-02-06 20:52:00,
2013-02-06 13:01:00,50.0,27.0,-100.00,South,170,5.0,15.0,41,0.00,,,0.00,297.000000,,2013-02-06 21:01:00,
2013-02-06 13:32:00,50.0,26.0,-100.00,WSW,241,8.0,15.0,39,0.00,,,0.00,192.000000,,2013-02-06 21:32:00,
2013-02-06 13:42:00,50.0,26.0,-100.00,WSW,241,8.0,15.0,39,0.00,,,0.00,192.000000,,2013-02-06 21:42:00,
2013-02-06 13:52:00,50.0,26.0,-100.00,WSW,241,8.0,15.0,39,0.00,,,0.00,192.000000,,2013-02-06 21:52:00,
2013-02-06 14:01:00,50.0,26.0,-100.00,WSW,241,8.0,15.0,39,0.00,,,0.00,192.000000,,2013-02-06 22:01:00,
2013-02-06 14:32:00,51.0,27.0,-100.00,WSW,239,6.0,10.0,39,0.00,,,0.00,220.000000,,2013-02-06 22:32:00,
2013-02-06 14:42:00,51.0,27.0,-100.00,WSW,239,6.0,10.0,39,0.00,,,0.00,220.000000,,2013-02-06 22:42:00,
2013-02-06 14:52:00,51.0,27.0,-100.00,WSW,239,6.0,10.0,39,0.00,,,0.00,220.000000,,2013-02-06 22:52:00,
2013-02-06 15:01:00,51.0,27.0,-100.00,WSW,239,6.0,10.0,39,0.00,,,0.00,220.000000,,2013-02-06 23:01:00,
2013-02-06 15:32:00,50.0,26.0,-100.00,NNW,328,1.0,10.0,39,0.00,,,0.00,158.000000,,2013-02-06 23:32:00,
2013-02-06 15:42:00,50.0,26.0,-100.00,NNW,328,1.0,10.0,39,0.00,,,0.00,158.000000,,2013-02-06 23:42:00,
2013-02-06 15:52:00,50.0,26.0,-100.00,NNW,328,1.0,10.0,39,0.00,,,0.00,158.000000,,2013-02-06 23:52:00,
2013-02-06 16:01:00,50.0,26.0,-100.00,NNW,328,1.0,10.0,39,0.00,,,0.00,158.000000,,2013-02-07 00:01:00,
2013-02-06 16:32:00,49.0,26.0,-100.00,NNE,21,3.0,5.0,40,0.00,,,0.00,117.000000,,2013-02-07 00:32:00,
2013-02-06 16:42:00,49.0,26.0,-100.00,NNE,21,3.0,5.0,40,0.00,,,0.00,117.000000,,2013-02-07 00:42:00,
2013-02-06 16:52:00,49.0,26.0,-100.00,NNE,21,3.0,5.0,40,0.00,,,0.00,117.000000,,2013-02-07 00:52:00,
2013-02-06 17:01:00,49.0,26.0,-100.00,NNE,21,3.0,5.0,40,0.00,,,0.00,117.000000,,2013-02-07 01:01:00,
2013-02-06 17:32:00,46.0,28.0,-100.00,WNW,301,3.0,5.0,49,0.00,,,0.00,51.000000,,2013-02-07 01:32:00,
2013-02-06 17:42:00,46.0,28.0,-100.00,WNW,301,3.0,5.0,49,0.00,,,0.00,51.000000,,2013-02-07 01:42:00,
2013-02-06 17:52:00,46.0,28.0,-100.00,WNW,301,3.0,5.0,49,0.00,,,0.00,51.000000,,2013-02-07 01:52:00,
2013-02-06 18:01:00,46.0,28.0,-100.00,WNW,301,3.0,5.0,49,0.00,,,0.00,51.000000,,2013-02-07 02:01:00,
2013-02-06 18:32:00,42.0,27.0,-100.00,WNW,289,7.0,9.0,55,0.00,,,0.00,4.000000,,2013-02-07 02:32:00,
2013-02-06 18:42:00,42.0,27.0,-100.00,WNW,289,7.0,9.0,55,0.00,,,0.00,4.000000,,2013-02-07 02:42:00,
2013-02-06 18:52:00,42.0,27.0,-100.00,WNW,289,7.0,9.0,55,0.00,,,0.00,4.000000,,2013-02-07 02:52:00,
2013-02-06 19:01:00,42.0,27.0,-100.00,WNW,289,7.0,9.0,55,0.00,,,0.00,4.000000,,2013-02-07 03:01:00,
2013-02-06 19:32:00,41.0,29.0,-100.00,SSE,147,3.0,9.0,62,0.00,,,0.00,1.000000,,2013-02-07 03:32:00,
2013-02-06 19:42:00,41.0,29.0,-100.00,SSE,147,3.0,9.0,62,0.00,,,0.00,1.000000,,2013-02-07 03:42:00,
2013-02-06 19:52:00,41.0,29.0,-100.00,SSE,147,3.0,9.0,62,0.00,,,0.00,1.000000,,2013-02-07 03:52:00,
2013-02-06 20:01:00,41.0,29.0,-100.00,SSE,147,3.0,9.0,62,0.00,,,0.00,1.000000,,2013-02-07 04:01:00,
2013-02-06 20:32:00,39.0,29.0,-100.00,South,182,2.0,5.0,67,0.00,,,0.00,1.000000,,2013-02-07 04:32:00,
2013-02-06 20:42:00,39.0,29.0,-100.00,South,182,2.0,5.0,67,0.00,,,0.00,1.000000,,2013-02-07 04:42:00,
2013-02-06 20:53:00,39.0,29.0,-100.00,South,182,2.0,5.0,67,0.00,,,0.00,1.000000,,2013-02-07 04:53:00,
2013-02-06 21:01:00,39.0,29.0,-100.00,South,182,2.0,5.0,67,0.00,,,0.00,1.000000,,2013-02-07 05:01:00,
2013-02-06 21:32:00,39.0,29.0,-100.00,WSW,250,2.0,5.0,67,0.00,,,0.00,1.000000,,2013-02-07 05:32:00,
2013-02-06 21:42:00,39.0,29.0,-100.00,WSW,250,2.0,5.0,67,0.00,,,0.00,1.000000,,2013-02-07 05:42:00,
2013-02-06 21:52:00,39.0,29.0,-100.00,WSW,250,2.0,5.0,67,0.00,,,0.00,1.000000,,2013-02-07 05:52:00,
2013-02-06 22:01:00,39.0,29.0,-100.00,WSW,250,2.0,5.0,67,0.00,,,0.00,1.000000,,2013-02-07 06:01:00,
2013-02-06 22:32:00,37.0,29.0,-100.00,SSE,152,1.0,6.0,72,0.00,,,0.00,1.000000,,2013-02-07 06:32:00,
2013-02-06 22:43:00,37.0,29.0,-100.00,SSE,152,1.0,6.0,72,0.00,,,0.00,1.000000,,2013-02-07 06:43:00,
2013-02-06 22:52:00,37.0,29.0,-100.00,SSE,152,1.0,6.0,72,0.00,,,0.00,1.000000,,2013-02-07 06:52:00,
2013-02-06 23:01:00,37.0,29.0,-100.00,SSE,152,1.0,6.0,72,0.00,,,0.00,1.000000,,2013-02-07 07:01:00,
2013-02-06 23:32:00,36.0,29.0,-100.00,NNE,15,2.0,5.0,77,0.00,,,0.00,1.000000,,2013-02-07 07:32:00,
2013-02-06 23:42:00,36.0,29.0,-100.00,NNE,15,2.0,5.0,77,0.00,,,0.00,1.000000,,2013-02-07 07:42:00,
2013-02-06 23:52:00,36.0,29.0,-100.00,NNE,15,2.0,5.0,77,0.00,,,0.00,1.000000,,2013-02-07 07:52:00,